HAZ2223 ZSHC-ZGKL

Flight info

Callsign HAZ2223
Flight time N/A
Altitude 34100
Route ABVIL H24 ISNIR H161 P366 H165 OLTUS R343 ONEMI
Aircraft A359/H-SDE2E3GHIJ3J4J5LM1ORWXY/LB1D1

Departure

Time N/A
Airport Hangzhou Xiaoshan International Airport (ZSHC)

Arrival

Time 2026-05-06 14:04
Airport Guilin Liangjiang International Airport (ZGKL)
Time Latitude Longitude Altitude Speed Heading
2026-05-06 12:46 29.26732 117.97796 34011 ft 470 kts 250°
2026-05-06 12:47 29.24658 117.92025 34013 ft 468 kts 250°
2026-05-06 12:47 29.22168 117.85108 34008 ft 467 kts 250°
2026-05-06 12:48 29.19690 117.78244 34004 ft 468 kts 250°
2026-05-06 12:48 29.17220 117.71413 34004 ft 468 kts 250°
2026-05-06 12:49 29.14721 117.64508 34003 ft 467 kts 250°
2026-05-06 12:49 29.12239 117.57671 34005 ft 467 kts 249°
2026-05-06 12:50 29.09738 117.50791 34005 ft 468 kts 249°
2026-05-06 12:50 29.07262 117.43912 34004 ft 467 kts 250°
2026-05-06 12:51 29.04812 117.37039 34005 ft 466 kts 250°
2026-05-06 12:51 29.02358 117.30188 34007 ft 466 kts 250°
2026-05-06 12:52 28.99902 117.23342 33976 ft 466 kts 250°
2026-05-06 12:52 28.97482 117.16481 33964 ft 466 kts 250°
2026-05-06 12:53 28.95069 117.09629 33958 ft 465 kts 250°
2026-05-06 12:53 28.92663 117.02832 33960 ft 465 kts 250°
2026-05-06 12:54 28.90239 116.96011 33961 ft 464 kts 250°
2026-05-06 12:54 28.87803 116.89175 33960 ft 464 kts 250°
2026-05-06 12:55 28.85377 116.82376 33958 ft 463 kts 250°
2026-05-06 12:55 28.82943 116.75563 33943 ft 463 kts 250°
2026-05-06 12:56 28.80517 116.68789 33943 ft 462 kts 250°
2026-05-06 12:56 28.78087 116.62021 33957 ft 462 kts 250°
2026-05-06 12:57 28.75644 116.55226 33950 ft 462 kts 249°
2026-05-06 12:57 28.73207 116.48455 33948 ft 462 kts 249°
2026-05-06 12:58 28.70767 116.41690 33956 ft 461 kts 249°
2026-05-06 12:58 28.68328 116.34939 33950 ft 461 kts 249°
2026-05-06 12:59 28.65886 116.28197 33936 ft 461 kts 249°
2026-05-06 12:59 28.63444 116.21467 33935 ft 461 kts 249°
2026-05-06 13:00 28.60991 116.14717 33953 ft 461 kts 249°
2026-05-06 13:00 28.58536 116.07974 33946 ft 461 kts 249°
2026-05-06 13:01 28.56084 116.01249 33936 ft 460 kts 249°
2026-05-06 13:01 28.53711 115.94497 33938 ft 459 kts 253°
2026-05-06 13:02 28.52290 115.87448 33935 ft 457 kts 260°
2026-05-06 13:02 28.51178 115.80323 33932 ft 457 kts 261°
2026-05-06 13:03 28.50110 115.73190 33931 ft 458 kts 261°
2026-05-06 13:03 28.49028 115.66055 33922 ft 458 kts 261°
2026-05-06 13:04 28.47963 115.58928 33923 ft 458 kts 262°
2026-05-06 13:04 28.46986 115.51782 33923 ft 458 kts 262°
2026-05-06 13:05 28.46016 115.44642 33924 ft 457 kts 262°
2026-05-06 13:05 28.45027 115.37507 33923 ft 457 kts 262°
2026-05-06 13:06 28.44027 115.30388 33922 ft 457 kts 262°
2026-05-06 13:06 28.43019 115.23236 33922 ft 457 kts 262°
2026-05-06 13:07 28.42008 115.16103 33923 ft 458 kts 262°
2026-05-06 13:07 28.40995 115.08972 33923 ft 458 kts 262°
2026-05-06 13:08 28.39976 115.01834 33917 ft 457 kts 261°
2026-05-06 13:08 28.38954 114.94708 33913 ft 458 kts 262°
2026-05-06 13:09 28.37929 114.87577 33913 ft 457 kts 262°
2026-05-06 13:09 28.36907 114.80492 33916 ft 458 kts 262°
2026-05-06 13:10 28.35875 114.73364 33912 ft 457 kts 261°
2026-05-06 13:10 28.34839 114.66252 33912 ft 457 kts 262°
2026-05-06 13:11 28.33800 114.59116 33913 ft 458 kts 261°
2026-05-06 13:11 28.32755 114.51998 33915 ft 457 kts 262°
2026-05-06 13:12 28.31706 114.44874 33914 ft 458 kts 261°
2026-05-06 13:12 28.30655 114.37758 33912 ft 457 kts 261°
2026-05-06 13:13 28.29717 114.30623 33906 ft 457 kts 264°
2026-05-06 13:13 28.28939 114.23476 33903 ft 456 kts 264°
2026-05-06 13:14 28.28151 114.16335 33904 ft 456 kts 263°
2026-05-06 13:14 28.27330 114.09194 33906 ft 457 kts 263°
2026-05-06 13:15 28.26489 114.02053 33933 ft 456 kts 263°
2026-05-06 13:15 28.25644 113.94903 33959 ft 457 kts 263°
2026-05-06 13:16 28.24799 113.87776 33960 ft 457 kts 263°
2026-05-06 13:16 28.23950 113.80637 33962 ft 457 kts 263°
2026-05-06 13:17 28.23096 113.73498 33960 ft 457 kts 263°
2026-05-06 13:17 28.22241 113.66359 33956 ft 457 kts 263°
2026-05-06 13:18 28.21372 113.59232 33945 ft 455 kts 263°
2026-05-06 13:18 28.20500 113.52117 33962 ft 456 kts 263°
2026-05-06 13:19 28.19628 113.45005 33956 ft 456 kts 263°
2026-05-06 13:19 28.18765 113.37896 33962 ft 455 kts 263°
2026-05-06 13:20 28.17899 113.30840 33956 ft 455 kts 263°
2026-05-06 13:20 28.17018 113.23717 33954 ft 454 kts 263°
2026-05-06 13:21 28.16164 113.16834 33958 ft 454 kts 263°
2026-05-06 13:21 28.15283 113.09738 33951 ft 453 kts 263°
2026-05-06 13:22 28.14410 113.02743 33954 ft 452 kts 263°
2026-05-06 13:22 28.13683 112.95682 33956 ft 451 kts 269°
2026-05-06 13:23 28.13884 112.88769 33960 ft 450 kts 273°
2026-05-06 13:23 28.14280 112.81714 33963 ft 449 kts 274°
2026-05-06 13:24 28.14706 112.74672 33958 ft 448 kts 274°
2026-05-06 13:24 28.15119 112.67633 33963 ft 447 kts 274°
2026-05-06 13:25 28.15519 112.60611 33957 ft 446 kts 274°
2026-05-06 13:25 28.15914 112.53602 33961 ft 445 kts 274°
2026-05-06 13:26 28.16304 112.46605 33960 ft 445 kts 274°
2026-05-06 13:26 28.16514 112.39609 33955 ft 445 kts 267°
2026-05-06 13:27 28.15332 112.32743 33963 ft 447 kts 253°
2026-05-06 13:27 28.12369 112.26516 33961 ft 455 kts 237°
2026-05-06 13:28 28.07767 112.21497 33964 ft 466 kts 223°
2026-05-06 13:28 28.02368 112.17354 33956 ft 471 kts 217°
2026-05-06 13:29 27.96685 112.13643 33962 ft 472 kts 216°
2026-05-06 13:29 27.91031 112.09895 33960 ft 471 kts 217°
2026-05-06 13:30 27.86390 112.06681 33967 ft 470 kts 218°
2026-05-06 13:30 27.79896 112.02125 33972 ft 470 kts 218°
2026-05-06 13:31 27.74333 111.98237 33972 ft 470 kts 218°
2026-05-06 13:31 27.69711 111.95009 33973 ft 470 kts 218°
2026-05-06 13:32 27.64148 111.91124 33965 ft 470 kts 218°
2026-05-06 13:32 27.57628 111.86584 33966 ft 471 kts 218°
2026-05-06 13:33 27.52046 111.82703 33972 ft 472 kts 217°
2026-05-06 13:33 27.47397 111.79479 33970 ft 472 kts 217°
2026-05-06 13:34 27.41798 111.75606 33973 ft 473 kts 217°
2026-05-06 13:34 27.36209 111.71727 33970 ft 473 kts 217°
2026-05-06 13:35 27.30595 111.67837 33979 ft 474 kts 217°
2026-05-06 13:35 27.24972 111.63951 33977 ft 474 kts 217°
2026-05-06 13:36 27.19348 111.60071 33980 ft 475 kts 217°
2026-05-06 13:36 27.13696 111.56222 33979 ft 476 kts 216°
2026-05-06 13:37 27.07969 111.52465 33978 ft 477 kts 216°
2026-05-06 13:37 27.02223 111.48710 33979 ft 478 kts 216°
2026-05-06 13:38 26.96518 111.44970 33979 ft 478 kts 216°
2026-05-06 13:38 26.90750 111.41184 33982 ft 479 kts 216°
2026-05-06 13:39 26.85175 111.37195 33980 ft 476 kts 219°
2026-05-06 13:39 26.79691 111.33054 33981 ft 477 kts 219°
2026-05-06 13:40 26.74126 111.28905 33989 ft 477 kts 219°
2026-05-06 13:40 26.68612 111.24847 33990 ft 477 kts 219°
2026-05-06 13:41 26.63048 111.20778 33989 ft 478 kts 218°
2026-05-06 13:41 26.57480 111.16719 33987 ft 479 kts 218°
2026-05-06 13:42 26.51788 111.12815 33987 ft 481 kts 217°
2026-05-06 13:42 26.46077 111.08939 33985 ft 480 kts 217°
2026-05-06 13:43 26.40367 111.05053 33988 ft 480 kts 217°
2026-05-06 13:43 26.34677 111.01184 33820 ft 480 kts 217°
2026-05-06 13:43 26.31817 110.99234 33572 ft 484 kts 217°
2026-05-06 13:44 26.28942 110.97276 33313 ft 485 kts 217°
2026-05-06 13:44 26.26071 110.95320 33061 ft 485 kts 216°
2026-05-06 13:44 26.23192 110.93358 32810 ft 485 kts 216°
2026-05-06 13:44 26.20301 110.91392 32575 ft 486 kts 216°
2026-05-06 13:45 26.17430 110.89443 32313 ft 486 kts 216°
2026-05-06 13:45 26.11658 110.85521 31254 ft 485 kts 216°
2026-05-06 13:45 26.08759 110.83553 30249 ft 488 kts 215°
2026-05-06 13:46 26.05858 110.81586 29231 ft 490 kts 215°
2026-05-06 13:46 26.02953 110.79618 28482 ft 486 kts 215°
2026-05-06 13:46 26.00245 110.77789 27816 ft 480 kts 214°
2026-05-06 13:46 25.97418 110.75872 27132 ft 473 kts 214°
2026-05-06 13:47 25.94612 110.73972 26420 ft 469 kts 215°
2026-05-06 13:47 25.91838 110.72098 25731 ft 465 kts 214°
2026-05-06 13:47 25.89081 110.70237 25017 ft 462 kts 214°
2026-05-06 13:47 25.86385 110.68417 24339 ft 458 kts 214°
2026-05-06 13:48 25.83675 110.66589 23649 ft 454 kts 214°
2026-05-06 13:48 25.80985 110.64778 22965 ft 450 kts 214°
2026-05-06 13:48 25.78318 110.62978 22277 ft 446 kts 214°
2026-05-06 13:48 25.75678 110.61199 21593 ft 441 kts 214°
2026-05-06 13:49 25.73076 110.59444 20876 ft 435 kts 214°
2026-05-06 13:49 25.70517 110.57698 20201 ft 429 kts 214°
2026-05-06 13:49 25.68000 110.55955 19504 ft 425 kts 214°
2026-05-06 13:49 25.65497 110.54239 18812 ft 421 kts 214°
2026-05-06 13:50 25.63025 110.52546 18138 ft 415 kts 214°
2026-05-06 13:50 25.60582 110.50870 17452 ft 410 kts 214°
2026-05-06 13:50 25.58168 110.49223 16760 ft 406 kts 214°
2026-05-06 13:50 25.55899 110.47411 16067 ft 398 kts 224°
2026-05-06 13:51 25.53995 110.45219 15377 ft 392 kts 230°
2026-05-06 13:51 25.52218 110.42958 14700 ft 387 kts 230°
2026-05-06 13:51 25.50468 110.40708 14027 ft 383 kts 230°
2026-05-06 13:51 25.48737 110.38495 13347 ft 379 kts 230°
2026-05-06 13:52 25.47018 110.36303 12662 ft 375 kts 230°
2026-05-06 13:52 25.45317 110.34138 12003 ft 371 kts 230°
2026-05-06 13:52 25.43628 110.31995 11325 ft 367 kts 229°
2026-05-06 13:52 25.41971 110.29892 11005 ft 355 kts 229°
2026-05-06 13:53 25.40394 110.27892 10890 ft 335 kts 229°
2026-05-06 13:53 25.38905 110.26006 10790 ft 317 kts 229°
2026-05-06 13:53 25.37492 110.24215 10684 ft 301 kts 229°
2026-05-06 13:53 25.36154 110.22517 10592 ft 286 kts 229°
2026-05-06 13:54 25.34879 110.20901 10474 ft 273 kts 229°
2026-05-06 13:54 25.33651 110.19348 10356 ft 263 kts 229°
2026-05-06 13:54 25.32476 110.17857 10220 ft 253 kts 229°
2026-05-06 13:54 25.31318 110.16391 9934 ft 254 kts 228°
2026-05-06 13:55 25.30118 110.14882 9746 ft 271 kts 228°
2026-05-06 13:55 25.28788 110.13401 9561 ft 270 kts 218°
2026-05-06 13:55 25.27107 110.12474 9002 ft 275 kts 195°
2026-05-06 13:55 25.25235 110.12175 8564 ft 275 kts 186°
2026-05-06 13:56 25.23317 110.12008 8208 ft 272 kts 186°
2026-05-06 13:56 25.21458 110.11837 7868 ft 271 kts 186°
2026-05-06 13:56 25.19588 110.11665 7504 ft 270 kts 186°
2026-05-06 13:56 25.17708 110.11491 7172 ft 267 kts 186°
2026-05-06 13:57 25.15971 110.11320 6846 ft 269 kts 186°
2026-05-06 13:57 25.14250 110.11160 6523 ft 268 kts 186°
2026-05-06 13:57 25.12407 110.10983 6266 ft 261 kts 186°
2026-05-06 13:57 25.10640 110.10816 6140 ft 249 kts 186°
2026-05-06 13:58 25.08961 110.10657 6026 ft 236 kts 186°
2026-05-06 13:58 25.07367 110.10504 5911 ft 225 kts 186°
2026-05-06 13:58 25.05840 110.10357 5789 ft 215 kts 186°
2026-05-06 13:58 25.04359 110.10214 5578 ft 213 kts 186°
2026-05-06 13:59 25.02883 110.10057 5315 ft 212 kts 188°
2026-05-06 13:59 25.01497 110.09535 5039 ft 213 kts 213°
2026-05-06 13:59 25.00545 110.08308 4928 ft 215 kts 244°
2026-05-06 13:59 25.00292 110.06667 4840 ft 220 kts 268°
2026-05-06 14:00 25.00408 110.04975 4473 ft 224 kts 274°
2026-05-06 14:00 25.00957 110.03377 4149 ft 228 kts 309°
2026-05-06 14:00 25.02253 110.02479 4110 ft 216 kts 339°
2026-05-06 14:00 25.03702 110.02133 3947 ft 213 kts 358°
2026-05-06 14:01 25.05160 110.02276 3690 ft 210 kts
2026-05-06 14:01 25.06612 110.02480 3362 ft 211 kts
2026-05-06 14:01 25.08070 110.02608 3038 ft 210 kts
2026-05-06 14:01 25.09515 110.02742 2758 ft 207 kts
2026-05-06 14:02 25.10939 110.02883 2476 ft 204 kts
2026-05-06 14:02 25.12330 110.03017 2208 ft 196 kts
2026-05-06 14:02 25.13638 110.03143 1970 ft 182 kts
2026-05-06 14:02 25.14856 110.03261 1726 ft 170 kts
2026-05-06 14:03 25.15992 110.03371 1512 ft 159 kts
2026-05-06 14:03 25.17060 110.03473 1302 ft 149 kts
2026-05-06 14:03 25.18052 110.03569 1108 ft 140 kts
2026-05-06 14:03 25.19009 110.03661 931 ft 139 kts
2026-05-06 14:04 25.19973 110.03753 742 ft 139 kts
2026-05-06 14:04 25.20934 110.03846 600 ft 136 kts
2026-05-06 14:04 25.21806 110.03930 585 ft 119 kts
2026-05-06 14:04 25.22352 110.03983 585 ft 31 kts
2026-05-06 14:05 25.22509 110.04012 586 ft 23 kts 26°
2026-05-06 14:05 25.22647 110.04092 586 ft 18 kts 33°
2026-05-06 14:05 25.22686 110.04162 585 ft 11 kts 96°
2026-05-06 14:05 25.22651 110.04195 585 ft 8 kts 162°
2026-05-06 14:06 25.22575 110.04192 585 ft 16 kts 185°
2026-05-06 14:06 25.22437 110.04177 585 ft 23 kts 186°
2026-05-06 14:06 25.22272 110.04162 587 ft 22 kts 183°
2026-05-06 14:06 25.22113 110.04148 589 ft 24 kts 185°
2026-05-06 14:07 25.21957 110.04133 585 ft 22 kts 185°
2026-05-06 14:07 25.21800 110.04118 585 ft 24 kts 185°
2026-05-06 14:07 25.21708 110.04109 585 ft 0 kts 185°
2026-05-06 14:07 25.21703 110.04109 585 ft 4 kts 185°
2026-05-06 14:08 25.21627 110.04102 585 ft 17 kts 185°
2026-05-06 14:08 25.21473 110.04087 585 ft 24 kts 185°
2026-05-06 14:08 25.21297 110.04070 585 ft 26 kts 185°
2026-05-06 14:08 25.21110 110.04053 585 ft 28 kts 185°
2026-05-06 14:09 25.21003 110.04055 585 ft 2 kts 125°
2026-05-06 14:09 25.21004 110.04076 585 ft 7 kts 90°
2026-05-06 14:09 25.21039 110.04132 589 ft 10 kts 37°
2026-05-06 14:09 25.21084 110.04194 587 ft 9 kts 64°
2026-05-06 14:10 25.21101 110.04244 585 ft 2 kts 70°
2026-05-06 14:10 25.21105 110.04256 585 ft 1 kts 70°
2026-05-06 14:10 25.21106 110.04259 585 ft 0 kts 70°